TimeCST,TemperatureF,Dew PointF,Humidity,Sea Level PressureIn,VisibilityMPH,Wind Direction,Wind SpeedMPH,Gust SpeedMPH,PrecipitationIn,Events,Conditions,WindDirDegrees,DateUTC
12:08 AM,37.4,33.8,87,29.78,2.5,NNW,5.8,-,N/A,,Overcast,340,2012-12-17 06:08:00
12:29 AM,37.4,35.6,93,29.77,2.0,North,5.8,-,N/A,,Overcast,10,2012-12-17 06:29:00
12:41 AM,37.4,35.6,93,29.77,1.8,North,4.6,-,N/A,,Overcast,360,2012-12-17 06:41:00
12:52 AM,37.0,35.1,93,29.78,1.5,NNW,6.9,-,N/A,,Overcast,330,2012-12-17 06:52:00
1:11 AM,37.4,35.6,93,29.77,1.2,North,9.2,-,N/A,,Overcast,350,2012-12-17 07:11:00
1:45 AM,37.4,35.6,93,29.78,1.0,NNW,8.1,-,N/A,,Overcast,340,2012-12-17 07:45:00
1:52 AM,37.0,35.1,93,29.78,1.0,NNW,11.5,-,N/A,,Overcast,340,2012-12-17 07:52:00
1:57 AM,37.4,35.6,93,29.78,1.5,North,8.1,-,N/A,,Overcast,350,2012-12-17 07:57:00
2:15 AM,37.4,35.6,93,29.79,2.0,NNW,6.9,-,N/A,,Overcast,340,2012-12-17 08:15:00
2:42 AM,37.4,33.8,87,29.79,3.0,NNW,8.1,-,N/A,,Overcast,340,2012-12-17 08:42:00
2:52 AM,37.0,34.0,89,29.79,4.0,North,8.1,-,N/A,,Overcast,350,2012-12-17 08:52:00
3:00 AM,37.4,33.8,87,29.78,4.0,North,6.9,-,N/A,,Overcast,360,2012-12-17 09:00:00
3:52 AM,37.0,34.0,89,29.80,3.0,NNW,6.9,-,N/A,,Overcast,340,2012-12-17 09:52:00
4:52 AM,36.0,33.1,89,29.80,4.0,NW,9.2,-,N/A,,Overcast,320,2012-12-17 10:52:00
5:33 AM,35.6,32.0,87,29.80,6.0,NW,6.9,-,N/A,,Overcast,320,2012-12-17 11:33:00
5:52 AM,36.0,33.1,89,29.80,5.0,North,3.5,-,N/A,,Overcast,360,2012-12-17 11:52:00
6:52 AM,36.0,33.1,89,29.81,4.0,NNW,4.6,-,0.00,,Overcast,340,2012-12-17 12:52:00
7:52 AM,36.0,32.0,86,29.82,4.0,NW,4.6,-,N/A,,Overcast,320,2012-12-17 13:52:00
8:52 AM,37.0,33.1,86,29.83,4.0,West,8.1,-,N/A,,Overcast,280,2012-12-17 14:52:00
9:52 AM,37.9,33.1,83,29.83,4.0,West,5.8,-,N/A,,Haze,270,2012-12-17 15:52:00
10:52 AM,39.9,33.1,77,29.85,5.0,WNW,6.9,-,N/A,,Haze,290,2012-12-17 16:52:00
11:47 AM,42.8,33.8,70,29.82,8.0,WSW,5.8,-,N/A,,Partly Cloudy,240,2012-12-17 17:47:00
11:52 AM,43.0,33.1,68,29.83,8.0,Variable,6.9,-,N/A,,Partly Cloudy,0,2012-12-17 17:52:00
12:52 PM,46.9,34.0,61,29.80,10.0,SW,10.4,16.1,N/A,,Clear,230,2012-12-17 18:52:00
1:52 PM,48.9,33.1,54,29.77,10.0,West,9.2,-,N/A,,Clear,260,2012-12-17 19:52:00
2:52 PM,51.1,32.0,48,29.75,10.0,West,5.8,-,N/A,,Clear,270,2012-12-17 20:52:00
3:52 PM,51.1,32.0,48,29.75,10.0,SSW,3.5,-,N/A,,Clear,210,2012-12-17 21:52:00
6:52 PM,33.1,28.0,82,29.78,10.0,Calm,Calm,-,N/A,,Clear,0,2012-12-18 00:52:00
7:52 PM,39.0,30.0,70,29.78,10.0,South,4.6,-,N/A,,Clear,180,2012-12-18 01:52:00
8:52 PM,37.9,30.9,76,29.78,10.0,South,4.6,-,N/A,,Clear,180,2012-12-18 02:52:00
9:52 PM,39.9,32.0,73,29.77,10.0,South,3.5,-,N/A,,Clear,170,2012-12-18 03:52:00
10:52 PM,39.9,33.1,77,29.77,10.0,South,6.9,-,N/A,,Clear,180,2012-12-18 04:52:00
11:52 PM,39.9,33.1,77,29.75,10.0,South,5.8,-,N/A,,Clear,190,2012-12-18 05:52:00